Weather History for Huntingburg, IN

Change the Weather History Date:

Thursday, December 1, 2011

  Actual Average Record
Temperature  
Mean Temperature 34 °F -  
Max Temperature 46 °F 47 °F 62 °F (2012)
Min Temperature 23 °F 33 °F 15 °F (2002)
Degree Days  
Heating Degree Days 30    
Moisture  
Dew Point 26 °F    
Average Humidity 75    
Maximum Humidity 93    
Minimum Humidity 42    
Precipitation  
Precipitation 0.34 in - - ()
Sea Level Pressure  
Sea Level Pressure 30.31 in    
Wind  
Wind Speed 3 mph (SE)    
Max Wind Speed 12 mph    
Max Gust Speed -    
Visibility 10 miles    
Events      
Averages and records for this station are not official NWS values.
T = Trace of Precipitation, MM = Missing Value Source: NWS Daily Summary

Daily Weather History Graph

Daily Weather History Graph

Search for Another Location

Airport:

Trip Planner

Search our weather history database for the weather conditions in past years. The results will help you decide how hot, cold, wet, or windy it might be!

Date:

Astronomy

Dec. 01, 2011 Rise Set
Actual Time 7:45 AM EST 5:27 PM EST
Civil Twilight 7:16 AM EST 5:57 PM EST
Nautical Twilight 6:43 AM EST 6:29 PM EST
Astronomical Twilight 6:11 AM EST 7:01 PM EST
Moon 12:34 PM EST (12/1) No Moon Set
Length of Visible Light 10h 40m
Length of Day
9h 42m
Waxing Crescent, 43% of the Moon is Illuminated
Dec 1
Waxing Crescent
Dec 2
First Quarter
Dec 10
Full
Dec 17
Last Quarter
Dec 24
New

Hourly Weather History & Observations

Time (EST) Temp. Windchill Dew Point Humidity Pressure Visibility Wind Dir Wind Speed Gust Speed Precip Events Conditions
12:15 AM 26.6 °F 21.2 °F 24.8 °F 93% 30.22 in 10.0 mi East 4.6 mph - N/A   Clear
12:35 AM 26.6 °F - 21.2 °F 80% 30.22 in 10.0 mi Calm Calm - N/A   Clear
12:55 AM 26.6 °F - 23.0 °F 86% 30.23 in 10.0 mi Calm Calm - N/A   Clear
1:15 AM 26.6 °F - 24.8 °F 93% 30.24 in 10.0 mi Calm Calm - N/A   Clear
1:35 AM 26.6 °F - 23.0 °F 86% 30.25 in 10.0 mi Calm Calm - N/A   Clear
2:15 AM 24.8 °F - 21.2 °F 86% 30.25 in 10.0 mi Calm Calm - N/A   Clear
2:35 AM 24.8 °F - 23.0 °F 93% 30.25 in 8.0 mi Calm Calm - N/A   Clear
3:15 AM 24.8 °F - 23.0 °F 93% 30.26 in 9.0 mi Calm Calm - N/A   Clear
3:35 AM 24.8 °F 20.5 °F 21.2 °F 86% 30.26 in 10.0 mi East 3.5 mph - N/A   Clear
3:55 AM 24.8 °F - 21.2 °F 86% 30.27 in 8.0 mi Calm Calm - N/A   Clear
4:15 AM 26.6 °F - 23.0 °F 86% 30.27 in 10.0 mi Calm Calm - N/A   Clear
4:35 AM 24.8 °F - 21.2 °F 86% 30.28 in 10.0 mi Calm Calm - N/A   Clear
4:55 AM 24.8 °F 19.1 °F 21.2 °F 86% 30.27 in 10.0 mi East 4.6 mph - N/A   Clear
5:35 AM 24.8 °F - 21.2 °F 86% 30.29 in 10.0 mi Calm Calm - N/A   Clear
5:55 AM 24.8 °F - 21.2 °F 86% 30.29 in 10.0 mi Calm Calm - N/A   Clear
6:15 AM 24.8 °F - 21.2 °F 86% 30.30 in 10.0 mi Calm Calm - N/A   Clear
6:35 AM 24.8 °F - 19.4 °F 80% 30.31 in 9.0 mi Calm Calm - N/A   Clear
6:55 AM 24.8 °F - 21.2 °F 86% 30.32 in 10.0 mi Calm Calm - N/A   Clear
7:15 AM 24.8 °F - 21.2 °F 86% 30.33 in 9.0 mi Calm Calm - N/A   Clear
7:35 AM 24.8 °F - 21.2 °F 86% 30.33 in 8.0 mi Calm Calm - N/A   Clear
7:55 AM 23.0 °F 18.4 °F 19.4 °F 86% 30.33 in 9.0 mi East 3.5 mph - N/A   Clear
8:15 AM 24.8 °F 17.9 °F 21.2 °F 86% 30.34 in 10.0 mi East 5.8 mph - N/A   Clear
8:35 AM 26.6 °F 22.6 °F 23.0 °F 86% 30.34 in 10.0 mi East 3.5 mph - N/A   Clear
9:15 AM 30.2 °F - 26.6 °F 86% 30.36 in 10.0 mi Calm Calm - N/A   Clear
9:35 AM 30.2 °F 26.7 °F 26.6 °F 86% 30.36 in 10.0 mi ESE 3.5 mph - N/A   Clear
10:15 AM 35.6 °F 30.7 °F 30.2 °F 81% 30.37 in 10.0 mi ESE 5.8 mph - N/A   Clear
10:35 AM - - - N/A% - - North - - N/A   Unknown
10:55 AM - - - N/A% - - North - - N/A   Unknown
11:15 AM - - - N/A% - - North - - N/A   Unknown
11:35 AM 42.8 °F 38.0 °F 21.2 °F 42% 30.35 in 10.0 mi SE 8.1 mph - 0.28 in   Unknown
11:55 AM 42.8 °F 37.0 °F 30.2 °F 61% 30.35 in 10.0 mi SSE 10.4 mph - 0.34 in   Clear
12:15 PM 42.8 °F 36.6 °F 30.2 °F 61% 30.35 in 10.0 mi SSE 11.5 mph - N/A   Clear
12:35 PM 42.8 °F 37.0 °F 30.2 °F 61% 30.34 in 10.0 mi South 10.4 mph - N/A   Clear
12:55 PM 44.6 °F 39.7 °F 30.2 °F 57% 30.33 in 10.0 mi SSE 9.2 mph - N/A   Clear
1:15 PM 44.6 °F 40.2 °F 30.2 °F 57% 30.32 in 10.0 mi SE 8.1 mph - N/A   Clear
1:35 PM 44.6 °F 40.2 °F 30.2 °F 57% 30.32 in 10.0 mi SSE 8.1 mph - N/A   Clear
2:15 PM 44.6 °F 43.1 °F 30.2 °F 57% 30.32 in 10.0 mi South 3.5 mph - N/A   Clear
2:35 PM 46.4 °F 43.5 °F 30.2 °F 53% 30.31 in 10.0 mi SE 5.8 mph - N/A   Clear
3:15 PM 46.4 °F 42.4 °F 30.2 °F 53% 30.30 in 10.0 mi SSE 8.1 mph - N/A   Clear
3:35 PM 46.4 °F 43.5 °F 30.2 °F 53% 30.31 in 10.0 mi SE 5.8 mph - N/A   Clear
3:55 PM 46.4 °F 43.5 °F 30.2 °F 53% 30.32 in 10.0 mi SSE 5.8 mph - N/A   Clear
4:15 PM 46.4 °F 42.4 °F 30.2 °F 53% 30.32 in 10.0 mi SSE 8.1 mph - N/A   Clear
4:36 PM 46.4 °F 42.9 °F 30.2 °F 53% 30.32 in 10.0 mi SSE 6.9 mph - N/A   Clear
5:15 PM 42.8 °F 40.1 °F 30.2 °F 61% 30.31 in 10.0 mi SSE 4.6 mph - N/A   Clear
5:35 PM 39.2 °F 35.0 °F 30.2 °F 70% 30.31 in 10.0 mi SSE 5.8 mph - N/A   Clear
6:15 PM 39.2 °F - 28.4 °F 65% 30.32 in 10.0 mi Calm Calm - N/A   Clear
6:35 PM 39.2 °F - 28.4 °F 65% 30.32 in 10.0 mi Calm Calm - N/A   Clear
6:55 PM 39.2 °F 37.0 °F 30.2 °F 70% 30.32 in 10.0 mi South 3.5 mph - N/A   Clear
7:15 PM 37.4 °F 32.8 °F 28.4 °F 70% 30.31 in 10.0 mi SSE 5.8 mph - N/A   Clear
7:35 PM 37.4 °F 33.8 °F 30.2 °F 75% 30.32 in 10.0 mi SSE 4.6 mph - N/A   Clear
7:55 PM 37.4 °F 33.8 °F 30.2 °F 75% 30.32 in 10.0 mi SSE 4.6 mph - N/A   Clear
8:15 PM 35.6 °F 32.8 °F 30.2 °F 81% 30.32 in 10.0 mi SE 3.5 mph - N/A   Clear
8:35 PM 33.8 °F 30.8 °F 28.4 °F 81% 30.31 in 10.0 mi ESE 3.5 mph - N/A   Clear
8:55 PM 35.6 °F 31.7 °F 28.4 °F 75% 30.31 in 10.0 mi ESE 4.6 mph - N/A   Clear
9:15 PM 35.6 °F 32.8 °F 30.2 °F 81% 30.31 in 10.0 mi SE 3.5 mph - N/A   Clear
9:35 PM 35.6 °F 31.7 °F 28.4 °F 75% 30.30 in 10.0 mi SE 4.6 mph - N/A   Clear
9:55 PM 35.6 °F - 30.2 °F 81% 30.31 in 10.0 mi Calm Calm - N/A   Clear
10:15 PM 37.4 °F 33.8 °F 30.2 °F 75% 30.30 in 10.0 mi East 4.6 mph - N/A   Clear
10:35 PM 33.8 °F - 28.4 °F 81% 30.31 in 10.0 mi Calm Calm - N/A   Clear
10:55 PM 33.8 °F - 28.4 °F 81% 30.31 in 10.0 mi Calm Calm - N/A   Clear
11:15 PM 33.8 °F - 30.2 °F 87% 30.31 in 10.0 mi Calm Calm - N/A   Clear
11:35 PM 32.0 °F - 28.4 °F 87% 30.32 in 10.0 mi Calm Calm - N/A   Clear